Location: Center Berlin
(42.6609°N, 73.3687°W)
Time: 20:54:07
(UTC+00:00)

Cosmos 2219 Rocket - Pass Details

Date: 10 September 2024
Orbit: 828 x 845 km, 71.0° (Epoch: 13 October)

Event Time Altitude Azimuth Distance (km) Brightness Sun altitude
Rises 23:40:41 0° 203° (SSW) 3,389 5.5 -6.2°
Reaches altitude 10° 23:43:07 10° 203° (SSW) 2,458 4.8 -6.6°
Maximum altitude 23:48:46 88° 289° (WNW) 851 2.3 -7.6°
Drops below altitude 10° 23:54:29 10° 24° (NNE) 2,472 4.5 -8.7°
Sets 23:56:56 0° 25° (NNE) 3,409 5.2 -9.1°
